Home   Weather   San Luis Potosi   Past weeks

Flag for Mexico Past Weather in San Luis Potosi, San Luis Potosí, Mexico — Yesterday and Last 2 Weeks

Now
66 °F

Passing clouds.


Feels Like: 66 °F
Forecast: 50 / 80 °F
Wind: 5 mph from Southeast

Location: San Luis Potosi - S. L. P.

Current Time: Apr 24, 2017 at 12:05:41 pm

Latest Report: Apr 24, 2017 at 10:46 am


Visibility: 10 mi

Pressure: 30.21 "Hg (24.26 "Hg at 1876m altitude)

Humidity: 46%

Dew Point: 45 °F

Location of San Luis PotosiLocation

Past Weather in San Luis Potosi — Graph

°F

San Luis Potosi Temperature Yesterday

Maximum temperature yesterday: 77 °F (at 3:40 pm)
Minimum temperature yesterday: 55 °F (at 7:40 am)
Average temperature yesterday: 65 °F

High & Low Weather Summary for the Past Weeks

 TemperatureHumidityPressure
High90 °F (Apr 9, 4:46 pm)100% (Apr 10, 4:40 am)30.33 "Hg (Apr 10, 4:40 am)
Low41 °F (Apr 19, 7:43 am)6% (Apr 9, 2:48 pm)29.60 "Hg (Apr 21, 6:44 pm)
Average64 °F56%30.07 "Hg
* Reported Apr 9 10:13 am — Apr 24 10:46 am, San Luis Potosi, Weather by CustomWeather, © 2017

Note: Actual official high and low records may vary slightly from our data, if they occured in-between our weather recording intervals... More about our weather records

Advertising

San Luis Potosi Weather History for the Previous 24 Hours

Scroll right to see more
 ConditionsComfort  
Time TempWeatherWind HumidityBarometerVisibility
10:46 am
Mon, Apr 24
66 °FPassing clouds.5 mph46%30.21 "Hg10 mi
9:47 am63 °FScattered clouds.6 mph56%29.86 "Hg8 mi
8:43 am55 °FMore clouds than sun.7 mph77%30.21 "Hg8 mi
7:43 am52 °FBroken clouds.No wind100%30.19 "Hg8 mi
6:43 am54 °FPartly cloudy.No wind94%29.83 "Hg6 mi
5:42 am54 °FPassing clouds.No wind94%30.19 "Hg6 mi
4:44 am54 °FClear.5 mph94%30.19 "Hg6 mi
3:47 am54 °FPassing clouds.5 mph82%29.82 "Hg6 mi
2:42 am54 °FPassing clouds.9 mph88%30.24 "Hg6 mi
1:54 am55 °FPassing clouds.7 mph72%30.24 "Hg6 mi
12:46 am57 °FPassing clouds.5 mph67%29.83 "Hg6 mi
11:46 pm
Sun, Apr 23
57 °FPassing clouds.No wind72%30.24 "Hg8 mi
10:40 pm57 °FClear.5 mph72%30.21 "Hg8 mi
9:44 pm61 °FClear.7 mph63%29.81 "Hg8 mi
8:40 pm64 °FPassing clouds.7 mph52%30.15 "Hg8 mi
7:40 pm70 °FScattered clouds.10 mph33%30.13 "Hg10 mi
6:47 pm73 °FSunny.15 mph27%29.75 "Hg10 mi
5:46 pm75 °FSunny.17 mph25%30.12 "Hg10 mi
4:48 pm77 °FPassing clouds.12 mph21%30.13 "Hg10 mi
3:40 pm77 °FPassing clouds.14 mph21%29.80 "Hg10 mi
2:40 pm75 °FSunny.9 mph21%30.20 "Hg10 mi
1:47 pm73 °FScattered clouds.12 mph27%30.22 "Hg10 mi
12:43 pm70 °FPartly sunny.17 mph33%29.89 "Hg10 mi
Weather by CustomWeather, © 2017

See weather overviewHow to use our weather pages